Theta_e
312 313 312 313 314 317 318 317 316 315 315 318 322 326 327 326 326 327 327 330 329 336 342 343 343 346 344 341 337 335 331 324 319 321 325 326 326 327 328 328 330 328 324
312 313 313 314 314 313 312 311 311 312 315 317 320 321 322 325 325 323 325 329 331 331 337 343 344 346 344 344 337 333 331 326 321 319 322 323 323 325 325 326 329 332 327
310 312 312 312 311 311 311 311 311 314 313 315 319 319 319 319 319 321 324 325 327 331 334 339 342 344 344 343 337 334 329 328 323 322 321 321 321 322 323 324 323 321 324
306 306 308 309 310 311 311 311 312 312 312 312 312 314 317 317 318 318 320 323 327 331 333 337 343 344 344 343 335 332 327 326 322 321 319 318 319 320 321 319 319 320 318
308 307 307 307 308 310 310 311 313 313 314 314 312 313 315 315 317 317 320 320 320 324 327 332 338 341 334 336 335 330 327 324 321 320 317 316 317 317 318 319 317 319 322
306 306 308 309 310 311 310 310 311 312 312 312 313 314 311 313 307 308 311 317 320 321 321 325 329 333 330 319 320 321 325 325 320 319 317 317 315 316 317 317 316 318 318
306 307 309 309 308 308 310 310 309 308 309 310 310 310 310 311 305 304 306 314 317 318 320 323 326 335 326 330 318 317 317 315 319 323 319 318 317 319 318 315 315 315 318
308 309 309 308 307 307 306 305 305 305 306 306 308 309 310 311 304 303 305 313 316 318 321 324 326 331 331 330 329 327 325 323 322 326 325 323 323 322 322 320 318 317 321
307 307 307 306 305 305 304 303 303 303 305 306 307 308 308 309 303 302 305 315 316 316 320 325 329 334 315 309 329 326 322 319 307 308 311 309 306 307 316 321 317 316 316
304 305 306 306 304 303 303 304 305 305 304 305 305 306 306 306 302 300 304 312 313 315 316 320 316 327 308 308 328 324 320 317 318 316 316 311 309 309 308 323 321 316 312
305 306 305 305 305 305 305 305 304 304 305 305 306 306 307 308 306 300 300 309 311 311 313 319 330 306 306 306 313 326 321 317 314 319 318 318 318 317 319 320 321 318 313
303 303 303 304 305 305 304 304 306 306 305 305 305 305 307 308 303 301 301 300 307 314 316 323 327 303 304 303 311 304 303 311 319 318 316 315 316 317 319 321 321 320 323
301 301 302 303 304 304 304 304 305 306 305 306 306 306 307 308 309 302 301 300 299 307 316 318 309 303 302 303 302 302 305 319 319 318 317 316 318 319 321 321 319 319 321
298 299 300 301 302 306 307 306 305 305 305 306 305 306 307 308 309 311 312 311 302 305 309 313 311 311 308 313 307 310 324 322 320 319 318 319 324 323 322 324 320 316 317
299 300 302 303 303 303 304 304 304 306 306 306 306 306 307 307 309 308 312 318 319 313 314 315 317 319 319 318 318 321 322 321 320 318 316 316 318 321 320 322 321 319 317
298 300 301 302 303 304 304 304 301 301 299 298 299 305 309 304 301 300 302 300 300 303 320 321 320 320 319 318 318 318 318 316 321 320 318 316 315 317 318 319 319 319 315
300 301 303 302 302 303 305 307 304 299 298 296 296 297 298 303 297 298 298 299 300 307 320 320 319 319 319 318 317 317 314 317 319 319 318 316 316 314 315 317 317 317 317
299 298 301 302 304 309 308 307 305 303 301 302 295 299 297 298 296 297 299 303 317 316 320 319 318 318 318 317 316 315 317 318 318 317 318 318 318 318 317 316 316 313 313
299 301 304 304 308 310 310 308 308 307 306 306 306 300 299 297 297 299 302 320 320 319 319 319 319 318 318 318 318 318 318 317 317 317 319 319 319 319 316 316 316 303 307
300 297 296 304 316 316 316 314 313 312 312 311 309 306 307 310 317 320 322 322 320 320 319 319 319 319 320 321 320 321 318 318 319 319 320 320 319 317 312 314 317 315 315
295 298 295 317 318 319 318 316 316 316 315 313 313 311 300 320 318 318 318 319 319 318 319 319 319 318 318 321 321 320 319 319 319 318 318 319 318 315 313 315 317 316 316
295 298 304 320 319 319 319 319 316 313 310 308 307 303 297 310 307 306 306 305 308 311 314 314 312 312 313 315 320 319 318 318 318 317 314 314 315 314 313 313 314 314 313
295 300 319 319 318 308 315 314 312 310 308 308 308 305 304 302 301 299 298 299 300 301 303 307 307 305 305 306 310 317 318 317 314 317 313 314 314 314 315 315 315 314 314
297 305 320 319 317 313 308 306 304 301 304 302 300 299 298 297 295 295 295 296 296 296 296 297 298 299 301 302 302 303 310 314 316 316 316 317 314 311 316 313 313 312 310
304 319 316 312 310 307 305 303 302 300 300 298 296 294 294 293 292 292 292 292 292 291 291 292 293 293 294 296 299 299 291 291 306 299 312 312 310 308 308 307 306 306 306
316 314 312 309 307 305 301 299 297 297 296 294 292 291 291 290 290 290 289 289 288 288 288 289 289 290 290 290 290 288 289 290 296 293 305 305 302 301 302 300 300 299 299
Wind_Speed
10 11 9 8 8 7 7 8 7 5 6 6 5 6 6 6 6 5 6 7 10 10 13 14 14 12 9 8 7 6 6 5 5 2 2 2 2 4 2 2 3 4 3
13 11 12 10 8 8 8 9 8 7 7 7 6 5 6 5 6 6 9 8 10 12 13 14 16 9 13 11 8 10 8 7 4 5 2 1 2 2 3 3 3 2 3
10 11 10 11 10 11 11 9 7 7 7 7 6 6 6 6 7 7 9 10 11 11 13 15 16 13 13 9 10 9 8 6 4 5 4 2 2 2 2 1 2 2 2
2 3 6 9 11 12 11 9 8 9 8 7 7 7 6 6 7 9 13 11 9 10 12 15 16 15 15 12 10 11 8 8 5 5 2 3 3 2 2 3 2 1 1
5 5 7 7 8 8 8 8 9 9 10 11 9 8 8 6 6 9 9 9 11 12 11 13 16 17 16 15 9 9 10 7 5 5 3 3 3 3 4 3 3 3 1
6 7 8 7 7 8 8 8 7 9 9 10 11 11 10 8 11 10 8 10 12 13 12 14 15 18 13 13 13 9 9 11 7 5 4 4 4 4 4 4 4 3 2
7 8 8 8 8 8 8 8 9 10 10 11 11 11 13 11 11 13 13 7 10 13 12 12 14 13 7 10 12 13 16 11 12 8 8 6 6 7 6 5 4 3 4
11 11 10 10 10 8 7 7 7 6 8 8 11 12 13 11 12 13 15 9 9 13 12 14 15 16 9 12 13 12 9 8 8 5 9 8 7 8 8 7 7 5 3
12 14 9 6 6 6 7 7 7 7 10 12 12 14 14 14 13 15 12 9 11 14 12 14 15 16 13 15 13 11 10 5 3 4 7 10 11 12 9 7 4 5 2
7 8 7 6 7 8 9 10 12 14 16 14 16 15 15 14 14 17 15 7 9 10 12 14 17 15 17 16 15 13 12 7 8 5 4 5 6 5 12 7 7 6 3
11 9 9 10 12 14 14 14 13 14 15 15 15 13 15 13 10 16 16 11 9 10 10 10 7 12 20 18 14 13 12 10 7 7 5 4 4 4 4 4 6 5 4
14 15 16 17 15 14 17 15 15 15 16 15 14 13 11 10 12 13 19 18 14 12 12 9 7 17 19 17 11 13 17 11 7 6 5 3 3 3 3 4 5 4 3
14 16 16 16 16 17 17 15 13 13 14 15 13 13 12 9 9 17 22 19 21 14 12 13 15 19 18 6 8 15 15 8 7 6 5 4 3 4 4 4 4 4 2
19 19 16 18 18 15 12 12 13 14 13 13 12 12 12 11 10 11 10 11 18 11 10 9 13 12 8 10 7 11 8 8 8 7 5 3 4 4 3 3 3 3 2
16 17 17 15 17 17 18 17 17 17 14 12 13 13 13 12 13 11 11 9 9 12 12 11 12 16 11 7 7 7 6 7 7 4 4 4 4 3 2 2 2 3 3
17 15 13 14 16 16 17 18 33 27 22 21 19 15 12 15 12 15 18 15 19 20 9 8 4 10 11 9 8 6 4 7 6 6 6 4 4 4 3 2 2 2 3
18 14 13 15 17 17 16 17 14 16 21 19 21 18 17 12 11 15 20 24 22 15 11 8 6 7 9 9 8 6 4 4 7 7 7 5 5 4 4 3 2 2 2
17 21 14 15 14 13 2 5 9 12 16 14 10 12 12 14 13 20 19 17 10 8 9 11 9 8 8 8 7 5 7 6 6 5 6 6 5 5 3 4 3 3 3
14 12 12 12 11 5 4 6 8 8 9 8 6 9 10 14 21 21 15 9 11 10 9 8 9 9 8 7 7 7 7 6 6 5 5 6 6 6 4 4 4 4 3
10 16 15 10 4 5 5 8 9 11 11 10 8 7 10 14 12 11 8 8 9 9 8 9 8 7 7 7 6 6 6 6 5 4 5 5 5 5 4 4 4 4 3
9 11 15 2 4 4 6 8 10 11 12 11 10 9 12 11 10 10 10 8 8 8 8 8 7 7 6 7 6 6 6 4 4 5 4 4 5 4 4 4 4 4 3
9 10 10 8 7 7 9 11 12 13 13 12 12 13 15 11 11 10 10 9 8 9 7 8 8 6 4 4 6 6 6 5 5 5 4 4 4 4 4 4 4 3 3
7 9 6 10 9 10 12 13 13 12 12 12 12 12 11 10 11 11 10 9 9 9 8 9 8 7 6 5 5 5 6 5 4 5 5 5 4 4 4 4 4 3 3
8 8 11 9 11 12 12 13 12 14 14 13 12 12 11 11 11 12 10 10 10 10 9 8 8 8 7 6 5 5 4 4 4 5 7 5 4 4 4 4 4 5 4
7 6 12 13 13 12 12 12 12 13 13 12 12 11 11 11 11 11 10 10 10 10 11 9 7 8 9 9 7 7 6 7 7 7 5 7 9 9 7 6 5 5 5
9 12 12 12 12 12 12 12 12 12 12 11 11 11 11 11 10 10 9 10 10 10 11 8 10 12 11 8 8 7 8 9 10 10 8 8 9 7 7 8 8 6 6
Wind_Direction
198 207 204 209 211 200 196 204 204 214 240 251 249 254 256 271 274 253 259 263 266 262 248 248 243 235 227 216 206 202 196 144 167 276 199 183 109 159 162 160 195 198 195
206 205 209 213 198 192 207 214 206 209 219 231 255 268 271 278 282 291 284 283 279 272 268 255 250 238 234 228 202 207 189 188 148 162 176 137 152 182 188 169 196 191 191
204 205 209 205 199 206 213 215 203 221 232 235 222 226 235 252 268 270 270 272 272 270 271 268 254 249 243 229 212 203 194 176 171 141 149 140 147 166 140 134 134 77 68
301 255 221 213 212 215 217 211 206 213 223 227 236 249 250 254 263 275 280 277 276 280 280 273 259 251 248 235 214 207 177 171 162 148 152 139 135 193 129 156 165 126 153
160 183 213 222 218 212 210 215 216 219 227 229 232 224 218 227 258 268 267 269 279 282 283 290 286 254 239 234 207 191 164 171 144 153 138 129 155 154 185 178 164 157 159
225 218 219 213 204 208 216 219 222 226 229 236 240 238 243 243 247 240 253 274 281 281 287 289 291 275 240 214 201 144 184 170 152 145 153 160 181 177 155 161 135 162 172
235 233 222 205 206 208 211 213 218 221 224 230 236 242 248 245 243 257 254 264 277 281 280 282 284 284 215 194 202 181 169 170 182 162 164 177 165 185 150 148 168 162 172
267 234 217 215 214 206 203 207 216 221 229 234 238 237 241 241 228 241 255 256 259 271 273 272 274 282 206 187 164 172 168 179 192 169 171 175 185 168 173 163 170 133 71
259 249 238 216 222 221 224 227 226 230 241 238 237 238 237 245 221 227 232 248 256 268 270 272 275 269 202 207 147 173 141 160 80 119 150 161 165 162 145 122 142 137 148
261 249 241 231 228 228 230 240 250 254 258 257 255 251 248 251 245 234 221 228 245 267 273 275 268 221 187 190 152 171 157 174 143 127 107 95 140 159 162 163 153 163 137
268 257 249 247 245 246 248 249 250 249 248 247 250 249 249 243 211 210 222 235 242 256 261 269 254 204 182 173 168 166 167 151 141 134 129 133 120 134 167 149 162 147 153
267 257 256 257 249 247 248 245 242 239 240 242 248 253 246 233 221 218 230 221 226 238 251 259 211 177 189 153 174 140 143 128 131 132 133 154 130 154 167 160 172 183 189
271 265 262 257 253 251 245 237 233 231 238 241 238 244 245 235 233 227 234 225 224 236 246 249 183 186 154 170 144 150 139 140 143 148 163 158 168 166 132 109 82 112 101
271 269 269 266 260 246 236 235 241 239 234 230 234 233 240 233 232 233 232 235 237 221 234 207 167 170 153 146 136 151 144 151 159 158 161 128 118 126 128 142 143 156 138
273 268 262 262 257 248 239 235 237 236 231 227 222 221 220 225 230 222 233 231 207 178 158 142 152 152 162 159 137 136 147 147 145 132 125 131 133 120 135 148 132 156 165
267 268 269 264 260 254 248 242 221 218 208 210 211 212 221 230 217 226 209 173 145 145 129 125 121 167 150 139 136 143 147 143 148 130 139 136 142 143 148 141 141 171 169
266 271 270 273 272 271 265 241 192 192 201 210 214 214 217 221 211 194 167 159 148 131 132 118 179 152 151 140 144 154 148 153 132 137 143 148 141 134 156 161 164 157 173
279 271 269 271 274 286 338 116 153 174 194 208 205 203 214 226 180 163 140 132 116 111 124 134 165 156 130 135 145 141 137 133 130 138 139 151 154 160 161 170 180 171 162
285 279 277 282 271 162 166 152 150 163 181 189 170 193 142 155 145 129 132 136 133 122 128 148 136 125 128 141 139 138 133 134 143 147 148 159 166 167 170 174 170 172 156
293 291 290 286 107 112 136 118 121 124 130 126 138 128 135 132 132 139 127 123 125 125 137 126 126 127 136 131 132 131 130 143 150 140 156 156 161 151 158 178 174 163 191
312 304 315 164 87 107 110 110 101 103 99 97 100 116 109 106 101 96 95 93 110 117 111 106 111 107 102 117 114 115 122 120 126 130 143 144 137 137 166 185 167 159 151
312 303 299 106 88 81 76 73 79 84 88 89 88 76 80 80 84 83 79 71 66 67 74 91 82 75 72 98 128 123 123 127 128 129 132 130 133 143 147 141 137 138 146
298 300 99 95 93 79 80 82 84 88 89 87 86 79 76 79 74 72 70 65 64 61 53 66 77 72 56 50 47 101 121 135 148 127 124 123 130 138 144 139 138 130 146
277 287 111 91 83 85 81 81 79 77 81 79 79 76 74 74 73 68 64 64 64 62 56 58 58 61 63 58 50 54 72 94 108 127 129 124 117 120 107 101 95 98 95
236 91 99 97 90 87 82 77 77 76 77 79 79 78 76 74 73 69 68 70 69 68 60 55 54 51 53 57 60 68 59 70 81 81 87 94 94 87 86 87 88 81 85
98 91 92 94 93 90 87 85 82 83 83 81 80 77 78 79 78 78 76 77 77 72 70 63 63 63 63 57 53 61 67 71 79 77 91 94 97 97 96 88 83 82 75